QPF
0.00 0.00 0.00 0.00 0.00 0.00 0.00 0.00 0.00 0.00 0.00 0.00 0.00 0.00 0.00 0.00 0.00 0.00 0.00 0.00 0.00 0.00 0.00 0.00 0.00 0.00 0.00 0.04 0.04 0.01 0.00 0.00 0.00 0.00 0.00 0.00 0.00 0.00 0.00 0.00 0.00 0.00 0.00 0.00 0.00
0.00 0.00 0.00 0.00 0.00 0.00 0.00 0.00 0.00 0.00 0.00 0.00 0.00 0.00 0.00 0.00 0.00 0.00 0.00 0.00 0.00 0.00 0.00 0.00 0.00 0.00 0.00 0.00 0.01 0.00 0.00 0.00 0.00 0.00 0.00 0.00 0.00 0.00 0.00 0.00 0.00 0.00 0.00 0.00 0.00
0.00 0.00 0.00 0.00 0.00 0.00 0.00 0.00 0.00 0.00 0.00 0.00 0.00 0.00 0.00 0.00 0.00 0.00 0.00 0.00 0.00 0.00 0.00 0.00 0.00 0.00 0.00 0.00 0.00 0.00 0.00 0.00 0.00 0.00 0.00 0.00 0.00 0.00 0.00 0.00 0.00 0.00 0.00 0.00 0.00
0.00 0.00 0.00 0.00 0.00 0.00 0.00 0.00 0.00 0.00 0.00 0.00 0.00 0.00 0.00 0.00 0.00 0.00 0.00 0.00 0.00 0.00 0.00 0.00 0.00 0.00 0.00 0.01 0.01 0.00 0.00 0.00 0.00 0.00 0.00 0.00 0.00 0.00 0.00 0.00 0.00 0.00 0.00 0.00 0.00
0.00 0.00 0.00 0.00 0.00 0.00 0.00 0.00 0.00 0.00 0.00 0.00 0.00 0.00 0.00 0.00 0.00 0.00 0.00 0.00 0.00 0.00 0.00 0.00 0.00 0.00 0.02 0.00 0.00 0.00 0.00 0.00 0.00 0.00 0.00 0.00 0.00 0.00 0.00 0.00 0.00 0.00 0.00 0.00 0.00
0.00 0.00 0.00 0.00 0.00 0.00 0.00 0.00 0.00 0.00 0.00 0.00 0.00 0.00 0.00 0.00 0.00 0.00 0.00 0.00 0.00 0.00 0.00 0.00 0.00 0.00 0.00 0.00 0.00 0.00 0.00 0.00 0.00 0.00 0.00 0.00 0.00 0.00 0.00 0.00 0.00 0.00 0.00 0.00 0.00
0.00 0.00 0.00 0.00 0.00 0.00 0.00 0.00 0.00 0.00 0.00 0.00 0.00 0.00 0.00 0.00 0.00 0.00 0.00 0.00 0.00 0.00 0.00 0.00 0.00 0.00 0.00 0.01 0.00 0.00 0.00 0.00 0.00 0.00 0.00 0.00 0.00 0.00 0.00 0.00 0.00 0.00 0.00 0.00 0.00
0.00 0.00 0.00 0.00 0.00 0.00 0.00 0.00 0.00 0.00 0.00 0.00 0.00 0.00 0.00 0.00 0.00 0.00 0.00 0.00 0.00 0.00 0.00 0.00 0.00 0.00 0.02 0.01 0.00 0.00 0.00 0.00 0.00 0.00 0.00 0.00 0.00 0.00 0.00 0.00 0.00 0.00 0.00 0.00 0.00
0.00 0.00 0.00 0.00 0.00 0.00 0.00 0.00 0.00 0.00 0.00 0.00 0.00 0.00 0.00 0.00 0.00 0.00 0.00 0.00 0.00 0.00 0.00 0.00 0.00 0.00 0.00 0.00 0.00 0.01 0.00 0.00 0.00 0.00 0.00 0.00 0.00 0.00 0.00 0.00 0.00 0.00 0.00 0.00 0.00
0.00 0.00 0.00 0.00 0.00 0.00 0.00 0.00 0.00 0.00 0.00 0.00 0.00 0.00 0.00 0.00 0.00 0.00 0.00 0.00 0.00 0.00 0.00 0.00 0.00 0.00 0.00 0.01 0.01 0.01 0.01 0.00 0.01 0.01 0.02 0.00 0.00 0.00 0.00 0.00 0.00 0.00 0.00 0.00 0.00
0.00 0.00 0.00 0.00 0.00 0.00 0.00 0.00 0.00 0.00 0.00 0.00 0.00 0.00 0.00 0.00 0.00 0.00 0.00 0.00 0.00 0.00 0.00 0.00 0.00 0.00 0.00 0.00 0.02 0.01 0.00 0.00 0.03 0.02 0.03 0.04 0.03 0.01 0.01 0.00 0.00 0.00 0.00 0.00 0.00
0.00 0.00 0.00 0.00 0.00 0.00 0.00 0.00 0.00 0.00 0.00 0.00 0.00 0.00 0.00 0.00 0.00 0.00 0.00 0.00 0.00 0.00 0.00 0.00 0.00 0.00 0.00 0.00 0.00 0.00 0.00 0.02 0.04 0.01 0.00 0.03 0.07 0.06 0.05 0.01 0.02 0.00 0.00 0.00 0.00
0.00 0.00 0.00 0.00 0.00 0.00 0.00 0.00 0.00 0.00 0.00 0.00 0.00 0.00 0.00 0.00 0.00 0.00 0.00 0.00 0.00 0.00 0.00 0.00 0.00 0.00 0.00 0.00 0.00 0.00 0.00 0.00 0.01 0.03 0.04 0.03 0.06 0.04 0.07 0.04 0.02 0.02 0.01 0.00 0.00
0.00 0.00 0.00 0.00 0.00 0.00 0.00 0.00 0.00 0.00 0.00 0.00 0.00 0.00 0.00 0.00 0.00 0.00 0.00 0.00 0.00 0.00 0.00 0.00 0.00 0.00 0.00 0.00 0.00 0.00 0.00 0.00 0.00 0.01 0.01 0.00 0.01 0.01 0.04 0.03 0.01 0.01 0.01 0.01 0.00
0.00 0.00 0.00 0.00 0.00 0.00 0.00 0.00 0.00 0.00 0.00 0.00 0.00 0.00 0.00 0.00 0.00 0.00 0.00 0.00 0.00 0.00 0.00 0.00 0.00 0.00 0.00 0.00 0.00 0.00 0.00 0.00 0.00 0.00 0.00 0.00 0.00 0.00 0.00 0.01 0.00 0.00 0.00 0.00 0.01
0.00 0.00 0.00 0.00 0.00 0.00 0.00 0.00 0.00 0.00 0.00 0.00 0.00 0.00 0.00 0.00 0.00 0.00 0.00 0.00 0.00 0.00 0.00 0.00 0.00 0.00 0.00 0.00 0.00 0.00 0.00 0.00 0.00 0.00 0.00 0.00 0.00 0.00 0.00 0.00 0.00 0.00 0.00 0.00 0.00
0.00 0.00 0.00 0.00 0.00 0.00 0.00 0.00 0.00 0.00 0.00 0.00 0.00 0.00 0.00 0.00 0.00 0.00 0.00 0.00 0.00 0.00 0.00 0.00 0.00 0.00 0.00 0.00 0.00 0.00 0.00 0.00 0.00 0.00 0.00 0.00 0.00 0.00 0.00 0.00 0.00 0.00 0.00 0.00 0.00
0.00 0.00 0.00 0.00 0.00 0.00 0.00 0.00 0.00 0.00 0.00 0.00 0.00 0.00 0.00 0.00 0.00 0.00 0.00 0.00 0.00 0.00 0.00 0.00 0.00 0.00 0.00 0.00 0.00 0.00 0.00 0.00 0.00 0.00 0.00 0.00 0.00 0.00 0.00 0.00 0.00 0.00 0.00 0.00 0.00
0.00 0.00 0.00 0.00 0.00 0.00 0.00 0.00 0.00 0.00 0.00 0.00 0.00 0.00 0.00 0.00 0.00 0.00 0.00 0.00 0.00 0.00 0.00 0.00 0.00 0.00 0.00 0.00 0.00 0.00 0.00 0.00 0.00 0.00 0.00 0.00 0.00 0.00 0.00 0.00 0.00 0.00 0.01 0.00 0.00
0.00 0.00 0.00 0.00 0.00 0.00 0.00 0.00 0.00 0.00 0.00 0.00 0.00 0.00 0.00 0.00 0.00 0.00 0.00 0.00 0.00 0.00 0.00 0.00 0.00 0.00 0.00 0.00 0.00 0.00 0.00 0.00 0.00 0.00 0.00 0.00 0.00 0.00 0.00 0.00 0.00 0.00 0.01 0.00 0.00
0.00 0.00 0.00 0.00 0.00 0.00 0.00 0.00 0.00 0.00 0.00 0.00 0.00 0.00 0.00 0.00 0.00 0.00 0.00 0.00 0.00 0.00 0.00 0.00 0.00 0.00 0.00 0.00 0.00 0.00 0.00 0.00 0.00 0.00 0.00 0.00 0.00 0.00 0.00 0.00 0.00 0.00 0.01 0.01 0.00
0.00 0.00 0.00 0.00 0.00 0.00 0.00 0.00 0.00 0.00 0.00 0.00 0.00 0.00 0.00 0.00 0.00 0.00 0.00 0.00 0.00 0.00 0.00 0.00 0.00 0.00 0.00 0.00 0.00 0.00 0.00 0.00 0.00 0.00 0.00 0.00 0.00 0.00 0.00 0.00 0.00 0.00 0.00 0.00 0.00
0.00 0.00 0.00 0.00 0.00 0.00 0.00 0.00 0.00 0.00 0.00 0.00 0.00 0.00 0.00 0.00 0.00 0.00 0.00 0.00 0.00 0.00 0.00 0.00 0.00 0.00 0.00 0.00 0.00 0.00 0.00 0.00 0.00 0.00 0.00 0.00 0.00 0.00 0.00 0.00 0.00 0.00 0.00 0.00 0.00
0.00 0.00 0.00 0.00 0.00 0.00 0.00 0.00 0.00 0.00 0.00 0.00 0.00 0.00 0.00 0.00 0.00 0.00 0.00 0.00 0.00 0.00 0.00 0.00 0.00 0.00 0.00 0.00 0.00 0.00 0.00 0.00 0.00 0.00 0.00 0.00 0.00 0.00 0.00 0.00 0.00 0.00 0.00 0.00 0.00
0.00 0.00 0.00 0.00 0.00 0.00 0.00 0.00 0.00 0.00 0.00 0.00 0.00 0.00 0.00 0.00 0.00 0.00 0.00 0.00 0.00 0.00 0.00 0.00 0.00 0.00 0.00 0.00 0.00 0.00 0.00 0.00 0.00 0.00 0.00 0.00 0.00 0.00 0.00 0.00 0.00 0.00 0.00 0.00 0.00
0.00 0.00 0.00 0.00 0.00 0.00 0.00 0.00 0.00 0.00 0.00 0.00 0.00 0.00 0.00 0.00 0.00 0.00 0.00 0.00 0.00 0.00 0.00 0.00 0.00 0.00 0.00 0.00 0.00 0.00 0.00 0.00 0.00 0.00 0.00 0.00 0.00 0.00 0.00 0.00 0.00 0.00 0.00 0.00 0.00
0.00 0.00 0.00 0.00 0.00 0.00 0.00 0.00 0.00 0.00 0.00 0.00 0.00 0.00 0.00 0.00 0.00 0.00 0.00 0.00 0.00 0.00 0.00 0.00 0.00 0.00 0.00 0.00 0.00 0.00 0.00 0.00 0.00 0.00 0.00 0.00 0.00 0.00 0.00 0.00 0.00 0.00 0.00 0.00 0.00
MSLP
1015.31 1014.75 1014.27 1013.82 1013.27 1012.69 1012.02 1011.53 1011.19 1010.69 1010.19 1009.46 1008.85 1008.45 1008.09 1007.51 1006.22 1005.77 1004.65 1002.40 1002.37 1002.74 1003.44 1003.82 1004.80 1004.31 1003.35 1005.34 1004.67 1004.61 1005.00 1003.72 1002.99 1003.13 1003.61 1004.21 1004.51 1005.14 1005.71 1006.61 1007.52 1008.63 1009.19 1010.46 1011.20
1015.26 1014.68 1014.08 1013.61 1013.09 1012.68 1012.10 1011.29 1010.78 1010.47 1010.05 1009.38 1008.75 1008.39 1008.05 1007.66 1006.71 1004.51 1002.03 1001.61 1001.52 1002.52 1003.22 1003.29 1003.66 1003.40 1002.78 1002.99 1003.47 1003.23 1002.66 1002.22 1002.14 1002.64 1003.08 1003.67 1004.21 1004.83 1005.55 1006.31 1007.64 1008.82 1009.89 1010.46 1011.00
1015.27 1014.68 1014.00 1013.41 1012.86 1012.33 1011.93 1011.32 1010.53 1009.96 1009.75 1009.24 1008.68 1008.24 1007.97 1007.75 1006.47 1002.56 1001.06 1001.42 1001.74 1002.29 1002.15 1002.25 1002.53 1002.67 1002.30 1002.62 1002.22 1001.45 1001.63 1001.80 1002.24 1002.50 1002.90 1003.45 1004.06 1004.56 1005.00 1006.12 1007.08 1008.17 1009.27 1010.05 1010.78
1015.15 1014.52 1013.93 1013.22 1012.54 1012.03 1011.50 1011.00 1010.41 1009.74 1009.21 1009.00 1008.56 1008.10 1007.84 1007.35 1004.84 1001.45 1001.24 1001.59 1002.30 1002.39 1002.51 1002.11 1001.67 1001.84 1002.36 1002.00 1001.17 1000.82 1001.17 1001.74 1002.21 1002.43 1002.82 1003.28 1003.74 1004.00 1004.40 1005.37 1006.44 1007.68 1008.75 1009.67 1010.48
1015.01 1014.39 1013.69 1012.96 1012.29 1011.58 1010.99 1010.49 1010.00 1009.45 1008.86 1008.64 1008.30 1007.91 1007.32 1006.30 1002.89 1001.05 1001.32 1001.61 1002.59 1002.40 1002.01 1001.80 1001.73 1001.44 1001.76 1001.27 1000.28 1000.96 1001.21 1001.67 1002.09 1002.36 1002.77 1003.16 1003.38 1003.56 1004.13 1005.30 1006.35 1007.38 1008.63 1009.51 1010.26
1014.92 1014.26 1013.53 1012.74 1011.91 1011.19 1010.51 1009.90 1009.53 1008.96 1008.55 1008.27 1008.03 1007.85 1007.16 1004.60 1000.54 1000.60 1001.27 1001.92 1001.75 1001.90 1001.03 1001.28 1000.86 1000.79 1001.70 1001.60 1000.94 1000.92 1001.29 1001.80 1002.11 1002.24 1002.44 1002.77 1003.09 1003.54 1004.21 1004.97 1006.11 1007.14 1008.21 1009.05 1009.66
1014.72 1014.03 1013.34 1012.52 1011.59 1010.82 1010.12 1009.45 1008.96 1008.54 1008.05 1007.89 1007.70 1007.30 1005.77 1002.30 999.59 999.99 1000.53 1000.92 1000.91 1000.92 1000.68 1000.18 1000.14 999.95 1001.07 1001.60 1000.82 1001.35 1001.79 1002.02 1002.21 1002.48 1002.59 1002.79 1003.48 1003.77 1003.94 1004.91 1005.82 1006.81 1007.65 1008.42 1008.81
1014.55 1013.80 1013.09 1012.24 1011.37 1010.49 1009.66 1008.88 1008.23 1007.86 1007.52 1007.42 1007.29 1006.72 1004.00 999.59 999.41 999.66 999.74 1000.05 1000.10 1000.32 1000.27 999.68 999.53 999.97 1000.92 1001.61 1002.14 1002.68 1002.68 1003.13 1002.62 1002.78 1002.86 1003.27 1004.03 1004.03 1004.26 1004.93 1005.88 1006.47 1007.10 1007.78 1008.16
1014.22 1013.39 1012.56 1011.80 1011.11 1010.09 1009.02 1008.00 1007.34 1006.84 1006.93 1006.98 1006.95 1005.97 1002.33 999.18 999.09 998.87 999.03 999.49 999.71 999.86 999.83 999.39 999.49 1000.32 1001.42 1002.41 1003.68 1004.60 1004.56 1004.32 1004.08 1003.57 1003.85 1004.07 1004.82 1004.96 1004.74 1005.40 1006.08 1006.43 1006.95 1007.38 1007.78
1014.06 1013.14 1012.18 1011.26 1010.45 1009.66 1008.54 1006.79 1006.28 1006.24 1006.31 1006.17 1005.58 1004.87 1001.15 998.99 998.51 998.64 998.67 999.02 999.40 999.71 999.83 999.68 1000.02 1000.78 1002.02 1003.05 1005.06 1005.72 1005.97 1005.65 1005.85 1005.59 1006.15 1005.40 1005.43 1005.50 1005.31 1005.69 1006.29 1006.70 1006.97 1007.26 1007.51
1013.80 1012.85 1011.78 1010.72 1009.94 1009.64 1008.53 1006.43 1006.29 1006.17 1005.16 1003.68 1002.82 1001.45 999.35 998.40 997.80 998.32 998.47 998.97 999.16 999.58 1000.07 1000.03 1000.55 1000.78 1001.13 1002.29 1003.13 1005.16 1006.26 1006.78 1006.53 1007.40 1008.83 1008.06 1007.28 1006.91 1006.45 1006.11 1006.35 1006.71 1007.02 1007.14 1007.37
1013.69 1012.77 1011.67 1010.34 1009.24 1009.10 1009.39 1007.16 1004.27 1003.50 1002.77 1001.76 1000.84 1000.23 998.96 998.19 997.92 998.13 998.29 999.10 999.41 999.82 1000.05 1000.41 1000.20 999.76 1000.25 1001.18 1002.58 1004.22 1006.46 1007.69 1009.28 1008.06 1008.78 1008.48 1010.62 1008.51 1008.61 1008.21 1008.09 1006.24 1006.62 1006.68 1007.04
1013.62 1012.66 1011.67 1010.03 1008.40 1007.73 1007.09 1004.87 1003.17 1002.76 1002.46 999.81 998.87 998.87 998.10 997.78 997.74 997.89 998.24 998.69 999.34 999.80 999.97 1000.08 999.50 998.95 999.94 1000.41 1001.38 1002.15 1004.34 1006.02 1007.38 1008.02 1007.82 1008.89 1012.39 1010.37 1009.13 1006.87 1007.16 1006.07 1005.62 1005.65 1005.96
1013.33 1012.54 1011.79 1010.20 1008.18 1007.29 1005.34 1003.57 1003.08 1002.69 1002.08 998.81 997.52 997.41 997.54 997.47 997.46 997.57 997.83 998.43 999.05 999.49 999.70 999.48 998.77 998.47 998.92 999.38 999.35 999.84 1001.91 1003.70 1005.86 1007.18 1006.30 1006.15 1010.27 1010.59 1008.09 1007.47 1006.34 1004.87 1004.55 1004.71 1004.97
1013.21 1012.53 1011.90 1011.62 1010.02 1007.65 1004.76 1003.79 1003.21 1002.97 1001.25 996.73 996.09 995.12 996.03 997.19 996.85 997.04 997.27 998.03 998.74 999.16 999.34 999.07 998.34 998.03 997.82 997.53 997.79 997.93 999.16 1000.82 1003.72 1003.52 1004.33 1004.71 1006.32 1008.01 1008.58 1007.14 1004.62 1003.62 1003.21 1003.24 1003.53
1012.63 1011.78 1011.70 1010.40 1009.54 1006.12 1004.66 1003.84 1003.29 1003.03 999.51 996.25 995.80 995.90 996.51 996.99 997.19 997.04 997.13 997.53 998.08 998.92 998.85 998.62 997.52 997.30 997.02 996.68 996.72 997.28 998.30 999.43 1000.35 1001.65 1003.08 1003.81 1005.37 1006.68 1005.86 1004.15 1002.75 1002.41 1002.23 1002.45 1002.67
1012.06 1010.79 1011.45 1009.92 1007.17 1005.13 1004.54 1003.91 1003.74 1001.59 996.94 996.16 995.91 996.04 996.68 997.26 997.27 997.22 997.33 997.85 998.45 999.18 999.23 998.74 997.85 996.85 996.71 996.85 996.69 997.24 998.67 999.98 1001.07 1001.97 1003.60 1003.13 1004.92 1005.89 1003.91 1001.95 1000.75 1000.82 1001.42 1001.34 1001.85
1011.40 1009.52 1007.82 1007.26 1005.70 1005.16 1004.83 1004.48 1003.20 999.71 997.68 996.22 995.07 995.82 996.41 996.74 997.19 997.12 997.29 998.00 998.23 998.75 999.09 999.10 998.24 997.11 996.41 996.73 996.83 997.49 998.58 1000.02 1000.91 1001.90 1003.32 1003.46 1004.51 1003.06 1001.72 1000.52 1000.80 1000.81 1001.33 1001.40 1001.04
1010.82 1008.12 1006.68 1005.06 1005.22 1005.08 1005.05 1004.42 1001.68 999.47 998.36 997.17 995.94 995.64 996.11 996.16 996.43 996.86 997.19 997.47 997.69 998.06 998.62 998.48 997.74 996.36 995.90 995.89 996.55 997.55 998.19 999.14 1000.15 1000.96 1002.37 1003.09 1003.00 1002.01 1000.84 1000.83 1000.52 1000.54 1001.24 1001.07 1000.36
1011.28 1008.41 1005.21 1003.55 1004.19 1004.53 1004.75 1003.40 1001.43 1000.03 998.95 997.85 997.15 996.34 996.41 996.16 996.16 996.21 996.30 996.12 996.31 996.57 996.87 997.24 997.61 996.27 995.58 995.41 996.18 996.96 998.01 999.19 999.99 1001.47 1002.33 1002.23 1001.39 1000.74 1000.90 1000.03 1000.35 1001.02 1001.22 1000.16 1000.05
1010.84 1007.61 1003.43 1003.03 1003.42 1004.34 1004.27 1002.87 1001.29 999.95 999.15 998.37 997.19 997.05 997.09 996.86 996.49 996.04 995.15 994.82 994.84 995.14 995.81 996.37 997.01 996.15 995.55 995.41 996.13 997.04 997.86 998.87 1000.07 1001.07 1001.75 1001.59 1001.09 998.80 999.29 999.01 999.19 999.09 1001.06 998.84 998.54
1011.01 1007.45 1003.39 1003.07 1003.85 1003.88 1003.60 1002.53 1001.05 999.94 998.96 998.39 997.82 997.85 997.70 997.24 996.78 996.02 994.80 994.12 993.33 993.96 994.92 995.58 996.08 996.55 995.84 994.80 995.18 996.09 997.20 998.23 999.91 1000.83 1000.80 1000.48 1000.25 998.11 997.63 997.53 997.11 997.29 997.07 997.16 997.61
1012.53 1008.03 1003.29 1003.19 1003.96 1003.86 1002.99 1002.07 1001.03 1000.10 999.11 998.40 998.40 998.37 998.31 998.02 997.64 996.56 995.53 993.94 993.27 993.23 994.09 994.75 995.57 996.45 996.13 995.80 995.05 995.72 996.27 997.17 998.19 998.99 999.97 1000.10 998.85 997.37 997.45 996.83 996.70 996.17 995.95 996.51 997.40
1013.13 1008.82 1005.27 1004.43 1004.32 1005.13 1004.18 1002.53 1001.61 1000.69 999.85 999.20 999.00 998.87 998.95 998.60 998.10 997.29 996.07 994.89 993.77 992.72 993.47 994.10 995.33 996.38 996.41 995.68 995.11 995.28 995.62 996.27 997.20 998.54 998.80 998.38 997.52 997.37 996.97 996.49 995.27 995.58 996.04 996.21 997.12
1012.81 1010.24 1009.68 1007.72 1006.69 1006.49 1005.51 1004.18 1002.97 1001.94 1001.02 1000.30 1000.18 999.68 999.52 999.54 999.06 998.69 998.32 997.06 995.08 994.42 994.09 994.42 995.44 995.92 995.87 995.43 994.94 994.86 994.80 995.28 996.25 996.68 997.70 997.18 996.61 996.12 996.07 995.60 995.57 995.62 996.17 996.80 997.45
1013.38 1012.85 1011.65 1010.42 1008.71 1007.50 1006.11 1004.82 1003.69 1002.61 1002.01 1001.41 1001.20 1000.58 1000.20 1000.69 1000.88 1000.32 1000.20 999.82 997.99 995.64 996.27 995.28 995.92 996.17 996.18 995.65 995.03 994.21 993.64 994.12 994.68 995.28 995.68 995.77 995.70 995.08 995.09 995.41 995.40 995.77 996.36 997.04 997.59
1015.45 1014.66 1013.41 1011.49 1010.03 1008.89 1007.31 1006.00 1004.94 1003.78 1002.68 1002.38 1002.55 1001.89 1001.40 1001.48 1001.41 1001.00 1000.71 1000.40 999.34 998.72 997.88 997.15 996.87 997.08 997.05 996.28 995.35 994.54 993.22 993.28 993.69 993.98 994.37 994.87 994.89 994.63 995.00 995.18 995.50 995.77 996.16 996.36 996.89
Thickness
5792 5796 5800 5804 5808 5813 5818 5822 5824 5828 5832 5838 5843 5846 5848 5853 5864 5868 5865 5891 5892 5890 5883 5874 5860 5862 5871 5825 5825 5839 5801 5807 5817 5815 5819 5833 5821 5831 5833 5814 5813 5807 5800 5795 5798
5790 5795 5800 5804 5808 5812 5816 5822 5827 5829 5832 5837 5843 5846 5848 5852 5859 5867 5900 5905 5904 5893 5879 5865 5855 5864 5855 5846 5845 5839 5824 5828 5846 5842 5830 5835 5828 5825 5820 5815 5805 5800 5801 5803 5801
5788 5793 5799 5804 5808 5813 5817 5821 5827 5833 5834 5838 5843 5846 5848 5850 5854 5877 5909 5906 5901 5895 5893 5886 5877 5862 5850 5852 5857 5859 5830 5849 5849 5851 5850 5836 5831 5837 5822 5805 5812 5804 5804 5805 5801
5787 5792 5796 5802 5808 5812 5817 5822 5827 5833 5838 5839 5843 5847 5849 5853 5833 5896 5907 5904 5896 5896 5886 5882 5876 5852 5840 5841 5869 5851 5862 5856 5852 5855 5848 5835 5842 5834 5835 5826 5831 5824 5818 5811 5803
5785 5790 5795 5801 5806 5813 5818 5823 5828 5833 5838 5841 5844 5847 5853 5848 5862 5906 5905 5904 5894 5890 5880 5872 5860 5857 5847 5858 5872 5854 5859 5861 5859 5855 5850 5850 5839 5836 5836 5838 5838 5831 5821 5813 5808
5783 5788 5794 5800 5807 5813 5819 5824 5828 5834 5838 5841 5843 5846 5848 5836 5910 5911 5904 5897 5896 5888 5889 5881 5872 5877 5855 5852 5859 5869 5863 5858 5858 5855 5855 5844 5842 5843 5839 5847 5836 5829 5821 5818 5814
5781 5786 5792 5798 5806 5812 5818 5824 5829 5833 5838 5840 5842 5847 5849 5859 5915 5915 5908 5898 5903 5896 5884 5897 5892 5879 5868 5851 5881 5870 5847 5855 5854 5852 5849 5854 5827 5830 5848 5845 5834 5829 5825 5823 5823
5778 5784 5790 5796 5804 5811 5818 5825 5831 5834 5838 5839 5841 5845 5842 5909 5917 5908 5910 5901 5907 5906 5900 5910 5905 5887 5871 5873 5859 5841 5842 5815 5849 5854 5857 5847 5803 5841 5851 5843 5831 5831 5829 5827 5826
5776 5783 5789 5796 5802 5810 5819 5828 5833 5837 5837 5838 5837 5838 5842 5910 5893 5908 5911 5892 5898 5901 5903 5910 5898 5875 5867 5839 5815 5815 5800 5812 5826 5854 5847 5845 5819 5840 5852 5843 5832 5832 5831 5830 5828
5772 5779 5787 5795 5802 5809 5818 5833 5837 5838 5838 5839 5842 5827 5861 5867 5893 5901 5910 5903 5888 5886 5880 5879 5867 5847 5838 5820 5774 5792 5796 5816 5805 5827 5827 5831 5828 5842 5849 5845 5835 5831 5830 5828 5829
5769 5777 5786 5795 5802 5804 5814 5831 5825 5821 5830 5832 5837 5846 5867 5887 5906 5889 5899 5888 5885 5872 5843 5862 5834 5820 5838 5839 5838 5820 5810 5806 5821 5818 5791 5798 5818 5834 5841 5846 5838 5833 5828 5828 5831
5767 5774 5784 5795 5804 5805 5803 5815 5832 5838 5816 5848 5854 5857 5873 5885 5863 5876 5895 5861 5856 5837 5853 5837 5826 5859 5861 5856 5838 5821 5800 5787 5783 5807 5799 5794 5754 5803 5810 5810 5817 5840 5834 5836 5835
5766 5773 5781 5795 5808 5814 5818 5828 5851 5848 5811 5841 5860 5857 5862 5875 5856 5859 5874 5863 5846 5835 5839 5825 5849 5875 5859 5849 5837 5835 5808 5799 5784 5793 5809 5792 5742 5778 5802 5833 5829 5844 5849 5852 5846
5767 5773 5778 5792 5810 5815 5821 5844 5850 5848 5785 5825 5844 5855 5864 5865 5844 5877 5879 5860 5845 5827 5838 5837 5868 5864 5859 5846 5861 5830 5846 5828 5809 5788 5789 5835 5754 5775 5812 5816 5832 5849 5853 5853 5856
5764 5770 5775 5777 5790 5801 5827 5843 5845 5830 5746 5851 5853 5894 5874 5845 5854 5855 5883 5858 5830 5833 5839 5829 5848 5851 5852 5866 5880 5863 5876 5858 5808 5820 5830 5834 5795 5802 5798 5803 5842 5855 5868 5868 5869
5765 5772 5773 5785 5789 5816 5831 5837 5829 5775 5761 5835 5855 5844 5840 5844 5844 5856 5855 5866 5861 5835 5840 5840 5875 5868 5866 5884 5890 5892 5874 5867 5868 5847 5804 5833 5804 5791 5807 5831 5859 5868 5870 5875 5874
5765 5776 5771 5782 5796 5822 5827 5815 5769 5759 5852 5838 5835 5842 5834 5824 5829 5837 5832 5824 5807 5790 5794 5826 5840 5866 5876 5856 5877 5875 5843 5786 5788 5788 5783 5825 5801 5792 5830 5860 5876 5877 5874 5880 5881
5765 5781 5795 5799 5812 5817 5811 5781 5755 5812 5828 5857 5862 5844 5823 5832 5826 5831 5825 5809 5828 5818 5801 5789 5789 5842 5871 5856 5850 5846 5836 5784 5773 5777 5797 5813 5779 5815 5855 5878 5877 5876 5872 5876 5884
5763 5786 5795 5810 5809 5809 5783 5752 5779 5811 5826 5829 5845 5833 5824 5838 5835 5828 5821 5815 5827 5830 5795 5793 5803 5866 5875 5880 5868 5840 5819 5850 5819 5830 5803 5795 5816 5846 5860 5859 5866 5870 5866 5869 5884
5750 5769 5791 5816 5809 5795 5764 5759 5787 5813 5820 5824 5803 5828 5808 5830 5828 5828 5823 5842 5839 5849 5852 5830 5794 5849 5869 5880 5870 5847 5859 5807 5809 5778 5775 5798 5807 5814 5829 5849 5856 5853 5853 5871 5886
5744 5757 5800 5813 5803 5769 5742 5766 5789 5814 5815 5806 5810 5808 5812 5814 5827 5832 5837 5854 5862 5859 5860 5847 5822 5834 5858 5846 5833 5834 5821 5829 5821 5807 5778 5776 5793 5859 5848 5861 5856 5866 5830 5873 5898
5730 5736 5790 5797 5751 5755 5747 5770 5790 5798 5813 5807 5813 5810 5808 5817 5812 5822 5832 5850 5883 5874 5844 5854 5833 5805 5828 5872 5876 5861 5832 5829 5781 5788 5804 5803 5801 5880 5876 5876 5883 5877 5889 5902 5905
5702 5729 5779 5776 5724 5734 5756 5766 5780 5782 5791 5795 5792 5803 5807 5801 5791 5816 5832 5867 5882 5874 5851 5859 5823 5790 5805 5835 5867 5844 5850 5844 5835 5827 5801 5790 5810 5872 5877 5881 5883 5891 5899 5904 5902
5689 5707 5739 5745 5742 5723 5728 5742 5747 5773 5773 5781 5780 5792 5788 5787 5804 5803 5823 5847 5866 5877 5871 5868 5835 5808 5784 5811 5848 5832 5846 5851 5835 5795 5804 5813 5838 5849 5863 5870 5898 5895 5897 5902 5901
5686 5695 5693 5690 5701 5704 5714 5722 5726 5736 5760 5766 5756 5769 5773 5765 5779 5783 5793 5810 5839 5850 5865 5853 5814 5829 5833 5848 5857 5850 5848 5847 5829 5829 5805 5829 5844 5865 5870 5880 5884 5898 5895 5891 5891
5668 5663 5671 5673 5690 5695 5705 5712 5719 5732 5737 5741 5739 5758 5765 5749 5751 5754 5766 5771 5788 5827 5817 5840 5807 5829 5815 5838 5846 5845 5862 5854 5848 5847 5846 5850 5857 5882 5884 5883 5886 5886 5889 5885 5884
5645 5649 5651 5663 5672 5675 5687 5698 5704 5718 5731 5735 5724 5729 5737 5738 5748 5762 5773 5776 5789 5790 5798 5807 5805 5801 5787 5823 5829 5816 5847 5857 5856 5856 5853 5831 5856 5894 5881 5880 5880 5882 5887 5889 5889